User: anonymous   Login
Location: Unspecified
(0.0000°N, 0.0000°E)
Time: 22:53:44
(UTC+00:00)
Language:

NANOSAT-1 - Orbit

View from above orbital plane
View from above orbital plane
View from above satellite
View from above satellite

Ground track
Ground track

The orbit data is extracted from the following two-line orbital elements,

1 28493U 04049B   17113.76969807 +.00000250 +00000-0 +46759-4 0  9990
2 28493 098.2065 182.7304 0004929 159.8348 200.3055 14.73302620662901
Epoch (UTC): 23 April 2017 18:28:21
Eccentricity: 0.0004929
inclination: 98.2065°
perigee height: 647 km
apogee height: 654 km
right ascension of ascending node: 182.7304°
argument of perigee: 159.8348°
revolutions per day: 14.73302620
mean anomaly at epoch: 200.3055°
orbit number at epoch: 66290

The dashed part of the orbit path shows where the satellite is in the earth's shadow,  

DLR